[[{"header":{"parameterUnit":"m.s-1","parameterCategory":2,"la1":30.2991,"la2":30.254,"lo1":-89.0895,"lo2":-89.0444,"dy":0.0017,"dx":0.0017,"nx":28,"ny":28,"refTime":"2025-07-20T09:00:00:Z","depth":"0","parameterNumber":2,"parameterNumberName":"U-component_of_CURRENTS"},"data":[0,0,0,0,0,0,0,0,0,0,0,0,0,0,0,0,0,0,0,0,0,0,0,0,0,0,0,0,0,0,0,0,0,0,0,0,0,0,0,0,0,0,0,0,0,0,0,0,0,0,0,0,0,0,0,0,0,0,0.4714,0.4716,0,0.4824,0.4825,0.4826,0.4832,0.4831,0.483,0.483,0.4889,0.4892,0.4894,0,0,0,0,0,0,0,0,0,0,0,0,0,0.4513,0.4516,0.4714,0.4716,0.4717,0.4824,0.4825,0.4826,0.4832,0.4831,0.483,0.4829,0.4889,0.4891,0.4894,0,0,0,0,0,0,0,0,0,0,0,0,0,0.4605,0.4517,0.4714,0.4737,0.474,0.4823,0.4825,0.4826,0.4833,0.4831,0.483,0.4829,0.4888,0.4891,0.4895,0.4943,0,0,0.4906,0.4907,0,0,0,0,0,0,0,0,0.46,0.4612,0.4731,0.4735,0.4739,0.4817,0.4776,0.4864,0.4833,0.4793,0.483,0.4828,0.4864,0.487,0.4888,0.4946,0.4948,0.4906,0.4908,0.491,0.4911,0,0,0,0,0,0,0,0.4593,0.4607,0.4753,0.4734,0.4738,0.4743,0.4754,0.4793,0.483,0.4796,0.4798,0.4818,0.4865,0.4884,0.4889,0.4949,0.4906,0.4909,0.4911,0.4913,0.5117,0.512,0,0,0,0,0,0,0.459,0.4602,0.475,0.4757,0.467,0.4748,0.476,0.479,0.4831,0.4838,0.4819,0.4818,0.4879,0.4885,0.4891,0.4989,0.491,0.4913,0.4915,0.5114,0.5118,0.5122,0,0,0,0,0,0,0.4586,0.4603,0.4745,0.4684,0.4703,0.4753,0.4786,0.4793,0.4813,0.4849,0.4854,0.4833,0.4878,0.4886,0.4943,0.4989,0.4915,0.4918,0.511,0.5115,0.512,0.516,0,0,0,0,0,0,0.458,0.4601,0.462,0.4684,0.4706,0.4805,0.4788,0.4796,0.4829,0.4829,0.4863,0.4867,0.4878,0.4938,0.4946,0.4993,0.4921,0.5106,0.5112,0.5118,0.5154,0.5165,0.5175,0,0,0,0,0,0.4572,0.4595,0.462,0.4638,0.4732,0.4808,0.4819,0.4846,0.4831,0.4855,0.488,0.4866,0.4983,0.4943,0.4952,0.5001,0.5103,0.5111,0.5118,0.515,0.5163,0.5175,0,0,0,0,0,0,0.4508,0.4601,0.4629,0.4677,0.4747,0.481,0.4835,0.4852,0.489,0.4886,0.49,0.4908,0.4975,0.4993,0.4947,0.5084,0.5045,0.5055,0.5066,0.5079,0.5089,0.5097,0.4924,0,0,0,0,0,0.4509,0.4553,0.4645,0.4683,0.4723,0.4781,0.4812,0.4839,0.4884,0.4898,0.4932,0.4972,0.5017,0.5047,0.5088,0.5161,0.5205,0.5206,0.5216,0.5224,0.5242,0.5369,0.5392,0.5146,0.5146,0.5146,0,0,0.4491,0.455,0.4573,0.4673,0.4726,0.4808,0.4795,0.4854,0.4925,0.4901,0.4994,0.5003,0.5043,0.5122,0.5156,0.5141,0.5317,0.5234,0.524,0.5254,0.5379,0.5403,0.5424,0.5151,0.515,0.5149,0,0,0.4489,0.454,0.4588,0.4658,0.4754,0.4812,0.4833,0.492,0.4961,0.5062,0.5049,0.5089,0.5186,0.521,0.5237,0.5336,0.5359,0.5353,0.5419,0.5541,0.5562,0.5581,0.5653,0.5678,0.5367,0.5367,0.5367,0,0.4474,0.455,0.461,0.4687,0.4754,0.482,0.49,0.497,0.5063,0.5118,0.5108,0.5232,0.5238,0.5323,0.5347,0.5357,0.5419,0.5357,0.5553,0.5573,0.5592,0.5661,0.5688,0.537,0.537,0.537,0.5369,0,0.4524,0.4592,0.4627,0.4762,0.4838,0.4913,0.5032,0.5116,0.518,0.525,0.5356,0.5369,0.5446,0.5447,0.5426,0.5549,0.5545,0.554,0.5512,0.5619,0.5685,0.5712,0.5374,0.5373,0.5372,0.5372,0,0,0.4498,0.4637,0.4655,0.4729,0.4885,0.4958,0.5101,0.5254,0.5349,0.5441,0.5562,0.5605,0.56,0.5628,0.5595,0.5674,0.5823,0.5663,0.5668,0.5717,0.6081,0.5951,0.5968,0.5863,0.5868,0.5873,0.6067,0,0.4536,0.4662,0.4733,0.4879,0.4971,0.5088,0.5215,0.5356,0.5475,0.5613,0.5656,0.5745,0.5678,0.5693,0.5772,0.5809,0.5902,0.577,0.5986,0.5992,0.5851,0.5998,0.5666,0.5802,0.6094,0.6099,0.6102,0,0.4587,0.4671,0.4795,0.4962,0.5013,0.5104,0.5324,0.5442,0.5643,0.5732,0.5837,0.5884,0.5981,0.5916,0.6087,0.6013,0.6063,0.6089,0.6098,0.5985,0.5915,0.5751,0.5841,0.569,0.6144,0.6141,0.6138,0,0.4567,0.4726,0.4819,0.488,0.5076,0.5156,0.5263,0.5468,0.5592,0.5792,0.5904,0.6035,0.6106,0.6216,0.6267,0.6212,0.6463,0.6403,0.6337,0.6327,0.609,0.6049,0.6042,0.6568,0.6568,0.6567,0.6567,0,0.4605,0.4688,0.4806,0.4872,0.5006,0.5133,0.5293,0.5434,0.563,0.5784,0.5929,0.6062,0.6195,0.6344,0.6373,0.6445,0.6573,0.6385,0.6393,0.609,0.605,0.594,0.5886,0.6574,0.6573,0.6571,0.657,0,0.4599,0.4665,0.4788,0.4952,0.5001,0.5097,0.5296,0.5422,0.5598,0.5807,0.5878,0.6136,0.6311,0.6429,0.6606,0.6565,0.6457,0.6641,0.6245,0.6202,0.5929,0.5889,0.5766,0.5603,0.6597,0.6596,0.6594,0,0.4613,0.4669,0.4821,0.4891,0.4963,0.51,0.5208,0.5389,0.5516,0.5839,0.5937,0.6186,0.6309,0.6518,0.6494,0.6551,0.6413,0.6297,0.6117,0.5903,0.5869,0.5687,0.5546,0.5821,0.5813,0.5807,0.5802,0,0.4668,0.4703,0.4806,0.4925,0.5024,0.5122,0.5264,0.5341,0.5564,0.5714,0.5919,0.6037,0.6221,0.6123,0.6202,0.6194,0.5959,0.6168,0.607,0.5372,0.5055,0.4902,0.5689,0.5746,0.5752,0.5756,0.5759,0.5761,0.471,0.4787,0.4897,0.4994,0.5066,0.5103,0.5096,0.5233,0.5343,0.544,0.5707,0.5702,0.5762,0.5787,0.5779,0.5527,0.5579,0.5331,0.5339,0.5206,0.4911,0.5556,0.5542,0.5546,0.555,0.5553,0.5556,0,0.4798,0.487,0.4971,0.5032,0.4995,0.5055,0.5107,0.502,0.5003,0.5121,0.5181,0.5114,0.5013,0.505,0.4913,0.4728,0.4518,0.4613,0.4276,0.4211,0.489,0.4714,0.4368,0.4368,0.4368,0.4369,0.4369,0.4369,0.4867,0.4976,0.5006,0.4936,0.4903,0.4751,0.4688,0.4586,0.4562,0.4393,0.4274,0.4305,0.4513,0.452,0.4302,0.4183,0.39,0.3678,0.3786,0.4251,0.4317,0.438,0.4202,0.3754,0.3754,0.2854,0.2848,0.2843]},{"header":{"parameterUnit":"m.s-1","parameterCategory":2,"la1":30.2991,"la2":30.254,"lo1":-89.0895,"lo2":-89.0444,"dy":0.0017,"dx":0.0017,"nx":28,"ny":28,"refTime":"2025-07-20T09:00:00:Z","depth":"0","parameterNumber":3,"parameterNumberName":"V-component_of_CURRENTS"},"data":[0,0,0,0,0,0,0,0,0,0,0,0,0,0,0,0,0,0,0,0,0,0,0,0,0,0,0,0,0,0,0,0,0,0,0,0,0,0,0,0,0,0,0,0,0,0,0,0,0,0,0,0,0,0,0,0,0,0,0.0248,0.0247,0,0.0127,0.0125,0.0124,0.0036,0.0036,0.0035,0.0035,-0.0064,-0.0066,-0.0068,0,0,0,0,0,0,0,0,0,0,0,0,0,0.0308,0.0308,0.0248,0.0247,0.0246,0.0127,0.0125,0.0123,0.0036,0.0036,0.0035,0.0034,-0.0063,-0.0065,-0.0068,0,0,0,0,0,0,0,0,0,0,0,0,0,0.0242,0.0308,0.0248,0.019,0.0184,0.0128,0.0125,0.0123,0.0036,0.0036,0.0035,0.0034,-0.0062,-0.0065,-0.0068,-0.0074,0,0,-0.0078,-0.008,0,0,0,0,0,0,0,0,0.0246,0.0239,0.02,0.0194,0.0187,0.0098,0.011,0.0059,0.0036,0.0089,0.0035,0.0034,-0.0005,-0.0013,-0.0038,-0.0078,-0.0083,-0.0079,-0.0081,-0.0082,-0.0083,0,0,0,0,0,0,0,0.0251,0.0243,0.0197,0.0199,0.0191,0.0137,0.0127,0.0099,0.0046,0.0085,0.0079,0.007,-0.0009,-0.0035,-0.0041,-0.0084,-0.0078,-0.0081,-0.0083,-0.0085,-0.0149,-0.0148,0,0,0,0,0,0,0.0277,0.0249,0.0201,0.0194,0.0218,0.0137,0.0126,0.0125,0.0046,0.0033,0.0071,0.0066,-0.0029,-0.0037,-0.0045,-0.0023,-0.0082,-0.0085,-0.0087,-0.0149,-0.0149,-0.0148,0,0,0,0,0,0,0.0279,0.0274,0.0206,0.022,0.0208,0.0138,0.0137,0.0123,0.0103,0.0035,0.0023,0.0066,-0.003,-0.004,-0.0066,-0.0028,-0.0086,-0.0089,-0.0149,-0.0149,-0.0149,0.0001,0,0,0,0,0,0,0.0281,0.0276,0.0283,0.0222,0.0208,0.0194,0.0137,0.0121,0.01,0.0093,0.0027,0.0017,-0.0031,-0.0061,-0.0069,-0.0034,-0.0092,-0.015,-0.0149,-0.0149,-0.0004,0.0007,0.0016,0,0,0,0,0,0.0284,0.031,0.0285,0.0279,0.0222,0.0196,0.0184,0.0129,0.0101,0.0105,0.0051,0.0019,-0.0064,-0.0063,-0.0073,-0.0037,-0.015,-0.0149,-0.0149,-0.0009,0.0005,0.0016,0,0,0,0,0,0,0.0339,0.0302,0.0273,0.0285,0.025,0.0183,0.0182,0.0143,0.0101,0.0096,0.0025,0.0012,0.0004,-0.0046,-0.0042,-0.006,-0.0113,-0.0114,-0.0003,0.0008,0.0018,0.0075,-0.0095,0,0,0,0,0,0.0356,0.0365,0.0315,0.0324,0.0314,0.0249,0.0231,0.0197,0.0152,0.0131,0.0082,0.0029,-0.0003,-0.0019,-0.0059,-0.0063,-0.0083,-0.0053,-0.0043,-0.0033,0.0003,0.0012,0.0028,-0.0147,-0.0147,-0.0147,0,0,0.0377,0.036,0.0362,0.0336,0.0302,0.0313,0.0236,0.0226,0.0238,0.0131,0.0131,0.0068,0.0001,-0.0006,-0.0014,-0.0039,-0.0001,-0.0033,-0.0024,0.0008,0.0014,0.0032,0.0048,-0.0146,-0.0146,-0.0146,0,0,0.0437,0.0414,0.0443,0.043,0.0399,0.0365,0.0372,0.0316,0.0295,0.0276,0.0208,0.0175,0.0108,0.0081,0.0056,0.0097,0.0052,0.0068,0.0171,0.018,0.0196,0.021,0.0191,0.0202,0.0073,0.0074,0.0074,0,0.046,0.0493,0.0447,0.0476,0.0477,0.0403,0.0438,0.0414,0.0356,0.0363,0.0297,0.0229,0.016,0.0183,0.0176,0.0129,0.0111,0.0139,0.0199,0.0212,0.0224,0.0201,0.0212,0.0081,0.008,0.0079,0.0079,0,0.0546,0.0568,0.0589,0.0603,0.06,0.0618,0.0584,0.0585,0.0539,0.0512,0.0509,0.0407,0.0369,0.0333,0.0259,0.031,0.0262,0.0217,0.0185,0.0252,0.0221,0.023,0.0091,0.0089,0.0087,0.0085,0,0,0.0597,0.064,0.0645,0.0678,0.067,0.0681,0.0719,0.0734,0.0783,0.0708,0.0765,0.0665,0.0605,0.0571,0.0481,0.0473,0.0506,0.0381,0.0378,0.0391,0.0512,0.0453,0.0455,0.0475,0.0478,0.048,0.0452,0,0.067,0.0758,0.0756,0.0838,0.0878,0.085,0.0898,0.0908,0.0889,0.0928,0.085,0.0855,0.0699,0.0683,0.065,0.0554,0.0537,0.0517,0.042,0.0417,0.0382,0.0467,0.0426,0.0397,0.046,0.0461,0.0462,0,0.0749,0.08,0.0893,0.0969,0.0986,0.1029,0.11,0.1134,0.1175,0.1164,0.1155,0.1091,0.1066,0.0922,0.0813,0.0806,0.0673,0.0587,0.0583,0.0493,0.0377,0.0339,0.0408,0.0185,0.0474,0.0473,0.0472,0,0.0805,0.0896,0.0976,0.0999,0.1072,0.1122,0.1163,0.1212,0.1273,0.1331,0.1385,0.1325,0.1317,0.1168,0.0945,0.0889,0.0833,0.0732,0.056,0.0552,0.0483,0.0466,0.0357,0.0677,0.0678,0.0678,0.0678,0,0.0879,0.0945,0.1017,0.1061,0.118,0.1203,0.1328,0.1367,0.1459,0.1586,0.151,0.1598,0.1381,0.1303,0.1064,0.0852,0.0919,0.0616,0.0564,0.0527,0.0515,0.0286,0.0146,0.0676,0.0677,0.0677,0.0677,0,0.0924,0.0966,0.1068,0.1167,0.1206,0.1292,0.1427,0.1532,0.1603,0.1774,0.1811,0.1825,0.1744,0.1501,0.1288,0.1026,0.0676,0.0717,0.0674,0.0618,0.0222,0.0092,-0.0075,-0.0158,0.0532,0.053,0.0529,0,0.096,0.1016,0.1137,0.1208,0.1257,0.1383,0.1486,0.1588,0.1717,0.1925,0.2036,0.2037,0.2066,0.1726,0.1302,0.092,0.0674,0.0596,0.0476,0.0235,0.0052,-0.0049,-0.0113,0.0425,0.0424,0.0422,0.0421,0,0.1027,0.106,0.1138,0.128,0.1396,0.155,0.1714,0.1842,0.2013,0.2191,0.2424,0.248,0.2176,0.1804,0.1266,0.0973,0.0423,0.0551,0.0329,0.0002,-0.0139,-0.0255,0.0384,0.0408,0.0409,0.041,0.0411,0.0411,0.1066,0.1131,0.1227,0.1363,0.1515,0.173,0.1879,0.2092,0.2349,0.2643,0.2685,0.2791,0.2218,0.1505,0.1095,0.0308,0.033,0.0033,-0.0093,-0.0162,-0.0271,0.0332,0.0277,0.0278,0.0278,0.0279,0.0279,0,0.1125,0.1195,0.1313,0.1497,0.1692,0.176,0.2046,0.2227,0.2564,0.2797,0.2995,0.2729,0.2037,0.1313,0.0266,-0.0256,-0.0428,-0.0528,-0.0684,-0.0708,-0.0147,-0.0181,-0.0369,-0.0369,-0.0369,-0.0368,-0.0368,-0.0368,0.1155,0.1258,0.1314,0.1613,0.1773,0.2043,0.2222,0.2502,0.2708,0.2963,0.2988,0.2974,0.2372,0.0604,-0.0567,-0.0816,-0.1143,-0.1257,-0.1362,-0.1014,-0.0971,-0.0931,-0.0993,-0.1349,-0.135,-0.1866,-0.1872,-0.1877]}],[{"header":{"parameterUnit":"m.s-1","parameterCategory":2,"la1":30.2991,"la2":30.254,"lo1":-89.0895,"lo2":-89.0444,"dy":0.0017,"dx":0.0017,"nx":28,"ny":28,"refTime":"2025-07-20T09:00:00:Z","depth":"2","parameterNumber":2,"parameterNumberName":"U-component_of_CURRENTS"},"data":[0,0,0,0,0,0,0,0,0,0,0,0,0,0,0,0,0,0,0,0,0,0,0,0,0,0,0,0,0,0,0,0,0,0,0,0,0,0,0,0,0,0,0,0,0,0,0,0,0,0,0,0,0,0,0,0,0,0,0.3548,0.355,0,0.3621,0.3621,0.3621,0.3592,0.3591,0.3591,0.359,0.3519,0.3518,0.3516,0,0,0,0,0,0,0,0,0,0,0,0,0,0.3392,0.3394,0.3548,0.355,0.3552,0.3621,0.3621,0.3621,0.3592,0.3591,0.359,0.359,0.3519,0.3518,0.3516,0,0,0,0,0,0,0,0,0,0,0,0,0,0.3451,0.3395,0.3548,0.3555,0.3557,0.3621,0.3621,0.362,0.3592,0.3591,0.359,0.3589,0.352,0.3518,0.3516,0.3522,0,0,0.351,0.3509,0,0,0,0,0,0,0,0,0.3447,0.3455,0.3552,0.3555,0.3557,0.3607,0.3541,0.3585,0.3592,0.3566,0.359,0.3589,0.3543,0.3539,0.354,0.3519,0.3516,0.351,0.3508,0.3508,0.3507,0,0,0,0,0,0,0,0.3443,0.3452,0.3565,0.3554,0.3558,0.3558,0.3564,0.3548,0.3547,0.3568,0.3569,0.3597,0.3542,0.3542,0.3538,0.3515,0.351,0.3508,0.3507,0.3506,0.3642,0.3646,0,0,0,0,0,0,0.3459,0.3448,0.3563,0.3568,0.3512,0.3562,0.3568,0.3582,0.355,0.355,0.3598,0.3595,0.3546,0.354,0.3535,0.3619,0.3508,0.3506,0.3505,0.3637,0.3643,0.3648,0,0,0,0,0,0,0.3455,0.3468,0.356,0.352,0.3533,0.3567,0.3582,0.3584,0.3602,0.3577,0.357,0.3616,0.3545,0.3538,0.3562,0.3612,0.3505,0.3503,0.3631,0.3639,0.3645,0.3735,0,0,0,0,0,0,0.345,0.3466,0.3498,0.3521,0.3537,0.3588,0.3585,0.3587,0.3625,0.3622,0.359,0.3582,0.3544,0.3565,0.356,0.3608,0.3502,0.3625,0.3635,0.3643,0.3726,0.3744,0.376,0,0,0,0,0,0.3444,0.3464,0.3498,0.3514,0.3573,0.359,0.3595,0.3609,0.3627,0.3623,0.364,0.3584,0.362,0.3567,0.3559,0.3608,0.3621,0.3632,0.3642,0.3718,0.374,0.3759,0,0,0,0,0,0,0.34,0.3466,0.3502,0.3541,0.3573,0.3589,0.3602,0.3628,0.364,0.3653,0.3621,0.3614,0.3667,0.3639,0.3582,0.3687,0.3621,0.3631,0.3681,0.3702,0.3719,0.3732,0.35,0,0,0,0,0,0.3418,0.3456,0.3507,0.3542,0.3556,0.3592,0.3614,0.3634,0.365,0.3655,0.3654,0.3674,0.3707,0.3702,0.3718,0.3748,0.3766,0.379,0.3807,0.3821,0.3837,0.3947,0.3975,0.3683,0.3683,0.3683,0,0,0.3415,0.346,0.3483,0.3539,0.356,0.358,0.3596,0.3632,0.3678,0.3646,0.3701,0.3729,0.3736,0.3789,0.381,0.3763,0.3915,0.3835,0.3846,0.3854,0.3961,0.3989,0.4014,0.3691,0.3689,0.3688,0,0,0.342,0.346,0.3496,0.3524,0.3589,0.3593,0.3611,0.3658,0.3702,0.3762,0.3788,0.3852,0.3865,0.3901,0.3915,0.4039,0.4014,0.4059,0.4127,0.4235,0.4259,0.428,0.4327,0.4351,0.405,0.405,0.405,0,0.3436,0.3474,0.3505,0.3545,0.3591,0.3597,0.3646,0.3672,0.3737,0.3811,0.3787,0.3935,0.3921,0.4033,0.408,0.4071,0.412,0.4032,0.4254,0.4275,0.4295,0.4338,0.4364,0.4056,0.4055,0.4055,0.4054,0,0.3458,0.3503,0.3511,0.3567,0.3614,0.3637,0.37,0.3739,0.3794,0.3866,0.4017,0.4042,0.4131,0.4152,0.4138,0.4302,0.4285,0.4269,0.4187,0.4329,0.4366,0.4391,0.4064,0.4062,0.406,0.4059,0,0,0.3464,0.3524,0.3533,0.3582,0.3641,0.3676,0.3743,0.3836,0.3907,0.4,0.4137,0.4228,0.429,0.4318,0.4345,0.4426,0.4586,0.4413,0.4416,0.4432,0.481,0.4647,0.4657,0.4623,0.4629,0.4633,0.4771,0,0.3481,0.3554,0.3595,0.366,0.3698,0.3749,0.3811,0.3918,0.3992,0.4102,0.4223,0.4348,0.4341,0.4408,0.4498,0.4595,0.4663,0.4549,0.4693,0.4697,0.4513,0.4685,0.4307,0.4387,0.4795,0.48,0.4803,0,0.3496,0.355,0.3625,0.3737,0.3765,0.3806,0.393,0.4,0.4145,0.4223,0.4375,0.4471,0.4655,0.4598,0.4833,0.4775,0.4802,0.484,0.4846,0.468,0.4582,0.4319,0.4417,0.4844,0.4841,0.4838,0.4835,0,0.3478,0.3579,0.3639,0.3672,0.3774,0.3853,0.3921,0.406,0.4155,0.4327,0.4428,0.4634,0.4774,0.4884,0.4986,0.4942,0.5199,0.5134,0.5001,0.4987,0.4684,0.4633,0.5266,0.5266,0.5266,0.5265,0.5265,0,0.3468,0.3525,0.3633,0.3656,0.3774,0.3878,0.3992,0.4081,0.4228,0.4354,0.4517,0.4654,0.4866,0.5035,0.5064,0.5135,0.5274,0.5052,0.5038,0.4702,0.4654,0.5059,0.5033,0.527,0.5269,0.5268,0.5267,0,0.3432,0.3478,0.3549,0.3681,0.3753,0.3842,0.4029,0.4087,0.4248,0.4412,0.4499,0.4758,0.4956,0.5102,0.5284,0.5238,0.5299,0.5258,0.4821,0.4752,0.4982,0.496,0.5142,0.5138,0.5135,0.5132,0.513,0,0.3411,0.342,0.3566,0.3608,0.3672,0.3812,0.3894,0.4075,0.4143,0.4453,0.4529,0.4813,0.491,0.512,0.51,0.5121,0.5233,0.4778,0.4603,0.5014,0.4983,0.4966,0.4949,0.4237,0.4227,0.422,0.4213,0,0.3354,0.3385,0.3443,0.3556,0.3646,0.3738,0.3886,0.3936,0.4134,0.427,0.446,0.4584,0.4779,0.465,0.47,0.4655,0.4748,0.4615,0.523,0.431,0.4168,0.4134,0.4146,0.4144,0.4151,0.4156,0.416,0.4163,0.3308,0.3319,0.3387,0.3477,0.3585,0.3645,0.3662,0.3763,0.3855,0.3987,0.4213,0.4252,0.4339,0.4192,0.4087,0.4029,0.4322,0.4156,0.4178,0.4209,0.4063,0.3921,0.3822,0.3827,0.3831,0.3835,0.3838,0,0.3253,0.327,0.3315,0.3401,0.3459,0.3586,0.3632,0.3549,0.3557,0.3698,0.3781,0.3517,0.3435,0.3526,0.331,0.3307,0.3257,0.3198,0.3108,0.3181,0.3245,0.3047,0.2538,0.2533,0.2529,0.2525,0,0,0.3207,0.3207,0.32,0.3249,0.3343,0.3316,0.3301,0.3193,0.3183,0.3084,0.3077,0.3309,0.3439,0.2948,0.2885,0.2678,0.2906,0.2579,0.3632,0.3601,0.3659,0.3818,0.3598,0,0,0,0,0]},{"header":{"parameterUnit":"m.s-1","parameterCategory":2,"la1":30.2991,"la2":30.254,"lo1":-89.0895,"lo2":-89.0444,"dy":0.0017,"dx":0.0017,"nx":28,"ny":28,"refTime":"2025-07-20T09:00:00:Z","depth":"2","parameterNumber":3,"parameterNumberName":"V-component_of_CURRENTS"},"data":[0,0,0,0,0,0,0,0,0,0,0,0,0,0,0,0,0,0,0,0,0,0,0,0,0,0,0,0,0,0,0,0,0,0,0,0,0,0,0,0,0,0,0,0,0,0,0,0,0,0,0,0,0,0,0,0,0,0,0.0118,0.0117,0,0.0029,0.0027,0.0026,-0.0037,-0.0037,-0.0037,-0.0038,-0.0115,-0.0116,-0.0118,0,0,0,0,0,0,0,0,0,0,0,0,0,0.0162,0.0162,0.0118,0.0117,0.0116,0.0029,0.0027,0.0026,-0.0037,-0.0037,-0.0037,-0.0038,-0.0114,-0.0116,-0.0118,0,0,0,0,0,0,0,0,0,0,0,0,0,0.0114,0.0162,0.0118,0.0076,0.0071,0.0029,0.0027,0.0026,-0.0036,-0.0037,-0.0037,-0.0038,-0.0113,-0.0116,-0.0119,-0.0126,0,0,-0.0127,-0.0128,0,0,0,0,0,0,0,0,0.0116,0.0112,0.0083,0.0078,0.0073,0.0008,0.0015,-0.0024,-0.0036,0.0002,-0.0038,-0.0038,-0.0071,-0.0077,-0.0096,-0.0129,-0.0133,-0.0127,-0.0129,-0.013,-0.013,0,0,0,0,0,0,0,0.012,0.0115,0.008,0.0082,0.0076,0.0037,0.003,0.0007,-0.0032,-0.0001,-0.0005,-0.0012,-0.0074,-0.0093,-0.0098,-0.0134,-0.0127,-0.0129,-0.0131,-0.0132,-0.0182,-0.0182,0,0,0,0,0,0,0.0139,0.0119,0.0083,0.0078,0.0096,0.0037,0.0029,0.0028,-0.0032,-0.0041,-0.0011,-0.0014,-0.0088,-0.0095,-0.0101,-0.009,-0.013,-0.0132,-0.0134,-0.0183,-0.0182,-0.0182,0,0,0,0,0,0,0.0141,0.0137,0.0087,0.0097,0.0088,0.0038,0.0036,0.0027,0.0011,-0.004,-0.0049,-0.0016,-0.0089,-0.0097,-0.0119,-0.0094,-0.0133,-0.0136,-0.0183,-0.0183,-0.0182,-0.0082,0,0,0,0,0,0,0.0143,0.0139,0.0144,0.0099,0.0089,0.0078,0.0037,0.0025,0.0009,0.0004,-0.0046,-0.0055,-0.009,-0.0115,-0.0122,-0.0098,-0.0138,-0.0183,-0.0183,-0.0182,-0.0086,-0.0078,-0.0072,0,0,0,0,0,0.0145,0.0166,0.0145,0.0141,0.0098,0.0079,0.0071,0.003,0.0009,0.0013,-0.003,-0.0053,-0.0117,-0.0117,-0.0125,-0.0101,-0.0183,-0.0183,-0.0182,-0.0089,-0.008,-0.0072,0,0,0,0,0,0,0.0187,0.016,0.0137,0.0147,0.0119,0.007,0.0071,0.004,0.0007,0.0004,-0.005,-0.006,-0.0073,-0.0104,-0.0103,-0.0118,-0.0154,-0.0155,-0.008,-0.0072,-0.0065,-0.0025,-0.014,0,0,0,0,0,0.02,0.0208,0.0169,0.0176,0.0169,0.0119,0.0106,0.008,0.0045,0.003,-0.0009,-0.0048,-0.0078,-0.0087,-0.0122,-0.0124,-0.0158,-0.0116,-0.0109,-0.0103,-0.0078,-0.0118,-0.0112,-0.018,-0.018,-0.018,0,0,0.0216,0.0203,0.0205,0.0185,0.016,0.0162,0.011,0.0103,0.0104,0.0029,0.002,-0.0027,-0.0077,-0.0085,-0.0092,-0.0105,-0.0105,-0.0103,-0.0096,-0.0075,-0.0117,-0.011,-0.0104,-0.018,-0.018,-0.018,0,0,0.0261,0.0245,0.0266,0.0255,0.0232,0.0201,0.0205,0.0162,0.0145,0.0125,0.0072,0.0043,-0.0005,-0.0031,-0.0052,-0.0026,-0.0073,-0.004,0.0038,-0.0001,0.0005,0.001,-0.0033,-0.0033,-0.0029,-0.0028,-0.0028,0,0.0278,0.0302,0.0269,0.0289,0.0289,0.0227,0.025,0.0224,0.0177,0.0181,0.0138,0.0076,0.0024,0.0029,0.0029,-0.0007,-0.0039,0.0015,0.0011,0.0015,0.0018,-0.0027,-0.0028,-0.0024,-0.0024,-0.0025,-0.0025,0,0.0338,0.0356,0.0373,0.0375,0.0369,0.0382,0.0346,0.034,0.0303,0.0278,0.0266,0.0188,0.0159,0.0131,0.0085,0.0093,0.0058,0.002,-0.0002,0.0032,-0.0019,-0.0022,-0.0017,-0.0018,-0.002,-0.0021,0,0,0.038,0.0409,0.0415,0.0442,0.0421,0.043,0.0437,0.0437,0.0467,0.0403,0.0433,0.0356,0.0318,0.0292,0.0229,0.0194,0.0167,0.0128,0.0123,0.01,0.0082,0.0036,0.0028,0.013,0.013,0.013,0.0034,0,0.0435,0.0505,0.0495,0.0553,0.0586,0.055,0.0573,0.0567,0.0541,0.0553,0.0483,0.0482,0.0379,0.0375,0.0319,0.0221,0.0167,0.0197,0.004,0.0036,0.0004,0.0026,0.006,-0.0024,0.0031,0.0031,0.003,0,0.0495,0.0539,0.061,0.0669,0.0682,0.0708,0.0747,0.0761,0.0757,0.0742,0.0717,0.0658,0.0615,0.0508,0.036,0.0387,0.0243,0.0147,0.014,0.0068,-0.0014,-0.0049,-0.0031,0.0025,0.0025,0.0026,0.0026,0,0.0552,0.0621,0.0686,0.0703,0.075,0.079,0.082,0.0832,0.0884,0.0877,0.0917,0.0823,0.0812,0.0632,0.0423,0.0396,0.0245,0.0177,-0.0006,-0.0012,-0.0026,-0.0033,0.0049,0.0049,0.0049,0.005,0.005,0,0.0615,0.0672,0.0732,0.077,0.0881,0.0882,0.0993,0.1002,0.1053,0.1153,0.1036,0.1083,0.0844,0.0725,0.0489,0.0252,0.0289,0.0022,-0.0032,0.0006,0.0003,0.0011,0.0008,0.0046,0.0047,0.0048,0.0048,0,0.0665,0.0693,0.0788,0.0871,0.091,0.0997,0.113,0.122,0.1242,0.1366,0.1385,0.1304,0.1146,0.0876,0.0595,0.0369,0.0124,0.0012,0.0072,0.0027,-0.013,-0.0127,-0.0188,-0.019,-0.0192,-0.0193,-0.0195,0,0.0697,0.0746,0.0871,0.0952,0.1,0.1132,0.1239,0.1309,0.1422,0.1512,0.1596,0.1484,0.1405,0.0973,0.0567,0.0157,0.0099,-0.0081,-0.0141,-0.0104,-0.0151,-0.0145,-0.0139,-0.013,-0.013,-0.0131,-0.0131,0,0.0768,0.0807,0.0891,0.1055,0.1186,0.1347,0.1511,0.1631,0.1737,0.1827,0.1914,0.1852,0.1448,0.1044,0.049,0.0211,-0.0012,-0.0108,-0.0066,-0.0075,-0.0057,-0.0101,-0.0096,-0.0137,-0.0136,-0.0136,-0.0135,-0.0135,0.0822,0.0907,0.102,0.1179,0.1346,0.1561,0.1701,0.1868,0.205,0.2177,0.2123,0.2018,0.1571,0.0843,0.0391,-0.0071,-0.0069,-0.024,-0.0235,-0.023,-0.0205,-0.0192,-0.0292,-0.0293,-0.0293,-0.0293,-0.0293,0,0.0908,0.1003,0.1144,0.1355,0.1558,0.1623,0.1884,0.2,0.2212,0.2286,0.2302,0.1858,0.1406,0.0902,0.0214,-0.021,-0.0234,-0.0339,-0.0268,-0.0261,-0.0255,-0.0229,-0.0324,-0.0325,-0.0327,-0.0327,0,0,0.0958,0.1106,0.1181,0.1504,0.1662,0.1914,0.2065,0.2193,0.2281,0.2316,0.2252,0.2111,0.1524,0.1024,0.0457,0.0075,0.0002,-0.0008,0.0058,0.0216,0.0227,-0.016,-0.0108,0,0,0,0,0]}],[{"header":{"parameterUnit":"m.s-1","parameterCategory":2,"la1":30.2991,"la2":30.254,"lo1":-89.0895,"lo2":-89.0444,"dy":0.0017,"dx":0.0017,"nx":28,"ny":28,"refTime":"2025-07-20T09:00:00:Z","depth":"4","parameterNumber":2,"parameterNumberName":"U-component_of_CURRENTS"},"data":[0,0,0,0,0,0,0,0,0,0,0,0,0,0,0,0,0,0,0,0,0,0,0,0,0,0,0,0,0,0,0,0,0,0,0,0,0,0,0,0,0,0,0,0,0,0,0,0,0,0,0,0,0,0,0,0,0,0,0.1829,0.183,0,0.193,0.1932,0.1933,0.2007,0.2007,0.2007,0.2007,0.2072,0.2074,0.2075,0,0,0,0,0,0,0,0,0,0,0,0,0,0.1778,0.1778,0.1829,0.183,0.183,0.193,0.1932,0.1934,0.2007,0.2007,0.2007,0.2007,0.2072,0.2073,0.2075,0,0,0,0,0,0,0,0,0,0,0,0,0,0.1836,0.1778,0.1829,0.1875,0.188,0.1929,0.1932,0.1934,0.2007,0.2007,0.2007,0.2008,0.2071,0.2073,0.2076,0.2087,0,0,0.2083,0.2084,0,0,0,0,0,0,0,0,0.1833,0.1839,0.1867,0.1872,0.1877,0.1951,0.1937,0.1981,0.2007,0.1964,0.2007,0.2008,0.2025,0.2031,0.2058,0.209,0.2092,0.2083,0.2085,0.2086,0.2086,0,0,0,0,0,0,0,0.1829,0.1835,0.1874,0.1868,0.1874,0.1917,0.1926,0.1947,0.1996,0.1968,0.1972,0.1975,0.2028,0.2055,0.206,0.2093,0.2083,0.2085,0.2087,0.2088,0.2236,0.2239,0,0,0,0,0,0,0.1801,0.1831,0.1871,0.1877,0.1849,0.1917,0.1927,0.1932,0.1996,0.2005,0.1975,0.1978,0.2051,0.2057,0.2062,0.2159,0.2086,0.2088,0.2089,0.2234,0.2237,0.2239,0,0,0,0,0,0,0.1799,0.1804,0.1867,0.1852,0.1862,0.1917,0.1922,0.1934,0.2009,0.2001,0.201,0.2043,0.2052,0.2059,0.2125,0.2159,0.2089,0.2091,0.2231,0.2235,0.2238,0.2301,0,0,0,0,0,0,0.1798,0.1803,0.1829,0.185,0.1862,0.1917,0.1922,0.1935,0.2004,0.2012,0.2061,0.2065,0.2052,0.2122,0.2127,0.2161,0.2093,0.2228,0.2232,0.2237,0.2296,0.2307,0.2316,0,0,0,0,0,0.1796,0.1815,0.183,0.1836,0.1886,0.1918,0.193,0.1972,0.2008,0.2044,0.2088,0.2066,0.2155,0.2126,0.2132,0.2167,0.2225,0.2231,0.2237,0.2291,0.2304,0.2316,0,0,0,0,0,0,0.1808,0.1824,0.1841,0.1867,0.19,0.1928,0.1973,0.2006,0.2075,0.2098,0.2103,0.211,0.2179,0.2174,0.2142,0.2226,0.2185,0.2192,0.2225,0.2237,0.2247,0.2269,0.2095,0,0,0,0,0,0.1819,0.1843,0.1862,0.189,0.1911,0.1959,0.1992,0.202,0.2063,0.2098,0.2123,0.216,0.22,0.2222,0.2246,0.2297,0.2317,0.2324,0.2334,0.2342,0.2367,0.2429,0.2447,0.2258,0.2258,0.2258,0,0,0.1835,0.1845,0.1864,0.1897,0.1935,0.1958,0.1983,0.2042,0.2063,0.2091,0.2151,0.2201,0.2226,0.2279,0.2309,0.2282,0.2409,0.2349,0.2356,0.2377,0.2437,0.2455,0.2472,0.2262,0.2261,0.226,0,0,0.1853,0.1888,0.1912,0.1938,0.1986,0.2002,0.2029,0.208,0.2113,0.2167,0.2205,0.2291,0.232,0.2363,0.2382,0.2469,0.2463,0.2474,0.2536,0.2596,0.2612,0.2627,0.2679,0.2698,0.2472,0.2472,0.2472,0,0.188,0.1892,0.1928,0.1949,0.1972,0.2024,0.2051,0.2083,0.2147,0.2192,0.2186,0.2336,0.2356,0.2461,0.2494,0.2491,0.2525,0.2482,0.2609,0.2623,0.2637,0.2687,0.2707,0.2476,0.2476,0.2475,0.2475,0,0.1893,0.1922,0.1942,0.1974,0.2009,0.2044,0.2073,0.213,0.2175,0.2212,0.2336,0.2395,0.2496,0.2511,0.2528,0.2654,0.2648,0.2616,0.2574,0.2659,0.2707,0.2727,0.2481,0.248,0.2479,0.2478,0,0,0.1899,0.1943,0.1955,0.1975,0.2026,0.2053,0.2102,0.2167,0.2241,0.2303,0.2409,0.2504,0.2592,0.2627,0.2683,0.2739,0.2865,0.2732,0.2733,0.2777,0.301,0.2792,0.2792,0.2857,0.286,0.2863,0.3005,0,0.1905,0.1932,0.1959,0.2001,0.2018,0.2083,0.2125,0.22,0.2272,0.2382,0.2482,0.2607,0.2613,0.2716,0.2774,0.2857,0.2919,0.283,0.2928,0.2931,0.272,0.2808,0.2875,0.302,0.3024,0.3027,0.3029,0,0.1898,0.1915,0.1954,0.2014,0.2037,0.2081,0.22,0.2254,0.2405,0.2483,0.2637,0.2721,0.2885,0.2854,0.3024,0.2972,0.3014,0.3043,0.3048,0.2838,0.2748,0.2917,0.3064,0.3061,0.3059,0.3056,0.3054,0,0.1853,0.1911,0.1943,0.1962,0.204,0.2103,0.2171,0.2307,0.2384,0.26,0.2701,0.2872,0.3006,0.3073,0.3148,0.3113,0.329,0.3234,0.3076,0.3061,0.3185,0.3169,0.3345,0.3344,0.3344,0.3344,0.3343,0,0.1809,0.1841,0.194,0.195,0.2016,0.2107,0.2221,0.2322,0.2506,0.2617,0.2787,0.2903,0.3072,0.3175,0.3202,0.3197,0.3337,0.3114,0.3088,0.3209,0.3193,0.3199,0.318,0.3349,0.3348,0.3347,0.3346,0,0.1731,0.1798,0.1837,0.1945,0.1988,0.205,0.2218,0.2301,0.2509,0.267,0.2758,0.2984,0.3123,0.3227,0.3363,0.326,0.3277,0.3239,0.3389,0.3366,0.2999,0.2982,0.3076,0.3069,0.3064,0.306,0.3056,0,0.1678,0.169,0.1811,0.183,0.1883,0.1996,0.2064,0.2281,0.2376,0.2678,0.2735,0.297,0.3086,0.3112,0.3224,0.3259,0.3214,0.3199,0.3074,0.3008,0.2975,0.2967,0.2958,0.3047,0.3046,0.3044,0.3043,0,0.1552,0.1628,0.1663,0.172,0.1793,0.1869,0.1998,0.2064,0.2326,0.2519,0.2669,0.2761,0.291,0.2998,0.3058,0.3062,0.3187,0.3141,0.3151,0.3034,0.2974,0.2945,0.2943,0.3024,0.3027,0.3029,0.303,0,0.1475,0.1463,0.1534,0.1573,0.1669,0.1731,0.1816,0.1941,0.2083,0.2411,0.2449,0.2687,0.2891,0.2898,0.2939,0.294,0.2885,0.2768,0.2796,0.2818,0.266,0.2542,0.2459,0,0,0,0,0,0.1375,0.1338,0.1355,0.1417,0.153,0.1599,0.1759,0.1867,0.2119,0.2158,0.2309,0.2431,0.254,0.2656,0.2605,0.2806,0.2883,0.273,0.2758,0.292,0.2942,0.2774,0,0,0,0,0,0,0.1296,0.1307,0.13,0.1313,0.1338,0.1462,0.1573,0.1735,0.1776,0.2021,0.2097,0.2263,0.2405,0.255,0.2556,0.2584,0.2545,0.2864,0.2857,0.2908,0.2927,0.2945,0.278,0,0,0,0,0]},{"header":{"parameterUnit":"m.s-1","parameterCategory":2,"la1":30.2991,"la2":30.254,"lo1":-89.0895,"lo2":-89.0444,"dy":0.0017,"dx":0.0017,"nx":28,"ny":28,"refTime":"2025-07-20T09:00:00:Z","depth":"4","parameterNumber":3,"parameterNumberName":"V-component_of_CURRENTS"},"data":[0,0,0,0,0,0,0,0,0,0,0,0,0,0,0,0,0,0,0,0,0,0,0,0,0,0,0,0,0,0,0,0,0,0,0,0,0,0,0,0,0,0,0,0,0,0,0,0,0,0,0,0,0,0,0,0,0,0,0.0116,0.0115,0,0.006,0.0059,0.0058,0.0029,0.0029,0.0029,0.0029,-0.0018,-0.002,-0.0021,0,0,0,0,0,0,0,0,0,0,0,0,0,0.0135,0.0135,0.0116,0.0115,0.0114,0.006,0.0059,0.0058,0.0029,0.0029,0.0029,0.0029,-0.0018,-0.002,-0.0021,0,0,0,0,0,0,0,0,0,0,0,0,0,0.0107,0.0135,0.0116,0.0094,0.0092,0.006,0.0059,0.0058,0.0029,0.0029,0.0029,0.0029,-0.0017,-0.0019,-0.0021,-0.0035,0,0,-0.0027,-0.0028,0,0,0,0,0,0,0,0,0.0108,0.0106,0.0098,0.0095,0.0093,0.0052,0.0048,0.0028,0.0029,0.0052,0.0029,0.0029,0.0007,0.0003,-0.001,-0.0037,-0.0039,-0.0027,-0.0029,-0.003,-0.003,0,0,0,0,0,0,0,0.011,0.0108,0.0093,0.0097,0.0094,0.0066,0.0062,0.0044,0.0029,0.005,0.0048,0.0043,0.0005,-0.0008,-0.0011,-0.004,-0.0027,-0.0029,-0.003,-0.0031,-0.0069,-0.0069,0,0,0,0,0,0,0.0123,0.011,0.0094,0.0091,0.0102,0.0066,0.0062,0.0064,0.0029,0.0024,0.0043,0.0042,-0.0004,-0.0009,-0.0013,-0.0012,-0.003,-0.0031,-0.0032,-0.0069,-0.0069,-0.0068,0,0,0,0,0,0,0.0123,0.0122,0.0097,0.0099,0.0094,0.0066,0.0069,0.0063,0.0054,0.0024,0.0019,0.004,-0.0004,-0.001,-0.0023,-0.0015,-0.0032,-0.0034,-0.0069,-0.0069,-0.0069,-0.0022,0,0,0,0,0,0,0.0124,0.0123,0.0128,0.0101,0.0095,0.0091,0.0068,0.0062,0.0051,0.0049,0.0019,0.0014,-0.0005,-0.002,-0.0025,-0.0018,-0.0036,-0.0069,-0.0069,-0.0069,-0.0024,-0.0021,-0.0018,0,0,0,0,0,0.0125,0.0137,0.0128,0.0126,0.0103,0.0091,0.0086,0.0064,0.0051,0.0054,0.003,0.0016,-0.0022,-0.0022,-0.0028,-0.002,-0.0069,-0.0069,-0.0069,-0.0026,-0.0021,-0.0018,0,0,0,0,0,0,0.0145,0.0134,0.0124,0.0131,0.0117,0.0087,0.0086,0.0068,0.005,0.0048,0.0016,0.001,0.0,-0.0017,-0.0016,-0.0031,-0.0047,-0.0048,-0.0013,-0.0009,-0.0006,0.0004,-0.0037,0,0,0,0,0,0.0153,0.0161,0.0141,0.0147,0.0143,0.0114,0.0105,0.0091,0.0071,0.0062,0.0041,0.0017,-0.0004,-0.0011,-0.0031,-0.0038,-0.0076,-0.0037,-0.0034,-0.0031,-0.0028,-0.0091,-0.0094,-0.0067,-0.0067,-0.0067,0,0,0.016,0.0156,0.016,0.0152,0.0138,0.0138,0.0109,0.0103,0.0102,0.006,0.0055,0.0027,-0.0004,-0.0013,-0.0018,-0.0024,-0.0056,-0.003,-0.0027,-0.0026,-0.0091,-0.0094,-0.0097,-0.0067,-0.0067,-0.0067,0,0,0.0184,0.0179,0.0193,0.0189,0.0177,0.0159,0.0161,0.0137,0.0126,0.0118,0.0083,0.0058,0.0038,0.0009,-0.0007,0.0001,-0.0039,0.0001,0.0028,-0.0033,-0.0036,-0.0039,-0.0083,-0.009,0.0006,0.0006,0.0006,0,0.0193,0.0211,0.0194,0.0207,0.0208,0.0173,0.0186,0.0169,0.0143,0.0139,0.0128,0.0076,0.0046,0.0021,0.0023,0.0008,-0.0027,0.0017,-0.003,-0.0034,-0.0038,-0.0082,-0.009,0.0008,0.0008,0.0008,0.0008,0,0.0225,0.0241,0.025,0.0257,0.0252,0.0261,0.0237,0.0234,0.0217,0.0196,0.0174,0.0124,0.0098,0.0079,0.0054,0.0017,0.0002,-0.0021,-0.0039,-0.0038,-0.0084,-0.0094,0.0012,0.0011,0.001,0.0009,0,0,0.0247,0.027,0.0275,0.0296,0.0283,0.0289,0.0287,0.0279,0.0289,0.025,0.025,0.0192,0.0163,0.0142,0.0098,0.0041,-0.0021,0.0005,0.0001,-0.0036,-0.0146,-0.0141,-0.0152,-0.0054,-0.0055,-0.0057,-0.0164,0,0.028,0.0326,0.0319,0.0359,0.0381,0.0358,0.0368,0.0355,0.0333,0.0326,0.0259,0.0245,0.0188,0.0181,0.011,0.0013,-0.0046,0.0011,-0.0144,-0.0148,-0.0144,-0.0163,-0.0062,-0.0172,-0.0174,-0.0176,-0.0177,0,0.0315,0.0346,0.0394,0.0433,0.044,0.0458,0.0473,0.048,0.0449,0.0435,0.0391,0.0336,0.0255,0.0208,0.0033,0.0073,-0.0028,-0.0113,-0.012,-0.0138,-0.0162,-0.0178,-0.0196,-0.0195,-0.0193,-0.0192,-0.0191,0,0.0353,0.0399,0.0446,0.0458,0.0488,0.0514,0.0533,0.0521,0.0548,0.0509,0.0517,0.04,0.0365,0.0205,0.0031,0.0031,-0.0167,-0.019,-0.0283,-0.0283,-0.0275,-0.0271,-0.0318,-0.0318,-0.0317,-0.0317,-0.0317,0,0.0392,0.0433,0.048,0.0509,0.0588,0.0582,0.0654,0.0652,0.066,0.0696,0.0589,0.0575,0.0362,0.0224,0.0049,-0.0144,-0.0156,-0.0283,-0.0316,-0.0251,-0.0243,-0.0282,-0.0277,-0.0321,-0.032,-0.0319,-0.0319,0,0.0425,0.045,0.052,0.0579,0.0612,0.0674,0.0765,0.0815,0.0804,0.0842,0.0838,0.0709,0.0525,0.0301,0.0041,-0.0094,-0.0298,-0.0363,-0.0265,-0.029,-0.0376,-0.0367,-0.0476,-0.0477,-0.0478,-0.0478,-0.0479,0,0.0446,0.0485,0.0587,0.065,0.0687,0.0784,0.0863,0.0897,0.0946,0.092,0.094,0.0784,0.0667,0.0315,0.0062,-0.027,-0.0317,-0.0414,-0.0413,-0.0374,-0.0395,-0.0385,-0.0375,-0.048,-0.048,-0.048,-0.048,0,0.049,0.0528,0.0591,0.0725,0.0826,0.094,0.1042,0.1088,0.1115,0.1103,0.1027,0.0833,0.0628,0.0331,0.0076,-0.0167,-0.0352,-0.0422,-0.0423,-0.0423,-0.038,-0.0398,-0.0388,-0.0483,-0.0483,-0.0482,-0.0482,0,0.0526,0.0585,0.0678,0.0799,0.0937,0.1057,0.1103,0.1154,0.1201,0.1153,0.1122,0.0881,0.0738,0.0384,0.0141,-0.0093,-0.0154,-0.0226,-0.0238,-0.0238,-0.0145,-0.0054,-0.0088,0,0,0,0,0,0.056,0.0634,0.0745,0.0882,0.1021,0.1094,0.121,0.1235,0.1254,0.122,0.1172,0.0973,0.0609,0.0446,0.0214,0.0117,-0.02,-0.0163,-0.0289,-0.0497,-0.0494,-0.0426,0,0,0,0,0,0,0.0585,0.0687,0.0748,0.0941,0.1035,0.119,0.1262,0.1265,0.1241,0.1207,0.102,0.0914,0.0562,0.0739,0.0207,0.0134,0.0023,-0.0337,-0.0342,-0.0498,-0.0496,-0.0493,-0.0423,0,0,0,0,0]}]]